logo tempoitalia

Diretta Meteo Tanger Aerodrome, Maroccomartedì 20 ottobre ore 17:30

Mappa
Sereno 26 °C Sereno 24 Ore: T.min 20 T.max 26
Ponente Sud Km/h 11.1 Punto di rugiada: 9 °C Umidità: 34% Visibilità: 5 Km
Il sole sorge alle: 07:33 Il sole tramonta alle: 18:42
20 Ottobre 2020 17:30 tempo osservato: Sereno Sereno 26 34 1007 vento: Nord S 11.1
20 Ottobre 2020 17:00 tempo osservato: Sereno Sereno 26 34 1007 vento: Nord S/SO 11.1
20 Ottobre 2020 16:00 tempo osservato: Sereno Sereno 26 36 1008 vento: Nord S/SO 11.1
20 Ottobre 2020 15:00 tempo osservato: Sereno Sereno 24 53 1008 vento: Nord NE 14.8
20 Ottobre 2020 14:30 tempo osservato: Sereno Sereno 24 57 1008 vento: Nord NE 13
20 Ottobre 2020 14:00 tempo osservato: Sereno Sereno 25 53 1008 vento: Nord NE 18.5
20 Ottobre 2020 13:30 tempo osservato: Sereno Sereno 25 53 1008 vento: Nord NE 20.3
20 Ottobre 2020 12:30 tempo osservato: Sereno Sereno 26 47 1010 vento: Nord E 16.7
20 Ottobre 2020 12:00 tempo osservato: Sereno Sereno 25 53 1010 vento: Nord E/NE 18.5
20 Ottobre 2020 11:30 tempo osservato: Sereno Sereno 24 57 1011 vento: Nord E/NE 14.8
20 Ottobre 2020 11:00 tempo osservato: Sereno Sereno 23 56 1011 vento: Nord E 18.5
20 Ottobre 2020 10:30 tempo osservato: Sereno Sereno 23 56 1012 vento: Nord E/NE 18.5
20 Ottobre 2020 10:00 tempo osservato: Sereno Sereno 22 60 1012 vento: Nord E 18.5
20 Ottobre 2020 09:30 tempo osservato: Sereno Sereno 21 64 1012 vento: Nord E 14.8
20 Ottobre 2020 09:00 tempo osservato: Sereno Sereno 21 64 1012 vento: Nord E 11.1
20 Ottobre 2020 08:30 tempo osservato: Sereno Sereno 20 68 1012 vento: Nord E 11.1
20 Ottobre 2020 08:00 tempo osservato: Sereno Sereno 20 68 1012 vento: Nord E 16.7
20 Ottobre 2020 07:30 tempo osservato: Sereno Sereno 20 68 1012 vento: Nord E 14.8
20 Ottobre 2020 07:00 tempo osservato: Sereno Sereno 20 68 1012 vento: Nord E 18.5
20 Ottobre 2020 06:30 tempo osservato: Sereno Sereno 20 68 1012 vento: Nord E 16.7
20 Ottobre 2020 06:00 tempo osservato: Sereno Sereno 20 68 1012 vento: Nord E 18.5
20 Ottobre 2020 05:00 tempo osservato: Sereno Sereno 20 68 1012 vento: Nord E 16.7
20 Ottobre 2020 04:30 tempo osservato: Sereno Sereno 20 68 1013 vento: Nord E 13
20 Ottobre 2020 04:00 tempo osservato: Sereno Sereno 20 68 1013 vento: Nord E 14.8
20 Ottobre 2020 03:30 tempo osservato: Sereno Sereno 20 68 1014 vento: Nord E 14.8
20 Ottobre 2020 03:00 tempo osservato: Sereno Sereno 20 68 1014 vento: Nord E 11.1
20 Ottobre 2020 02:30 tempo osservato: Sereno Sereno 20 68 1014 vento: Nord E 11.1
20 Ottobre 2020 02:00 tempo osservato: Sereno Sereno 20 68 1015 vento: Nord E 11.1
20 Ottobre 2020 01:30 tempo osservato: Sereno Sereno 21 64 1014 vento: Nord E 9.3
20 Ottobre 2020 01:00 tempo osservato: Sereno Sereno 21 60 1014 vento: Nord E 11.1
20 Ottobre 2020 00:30 tempo osservato: Sereno Sereno 21 64 1015 vento: Nord E 11.1
20 Ottobre 2020 00:00 tempo osservato: Sereno Sereno 21 64 1015 vento: Nord E 9.3
19 Ottobre 2020 23:30 tempo osservato: Sereno Sereno 21 64 1015 vento: Nord E 9.3
19 Ottobre 2020 23:00 tempo osservato: Sereno Sereno 21 64 1015 vento: Nord E 11.1
19 Ottobre 2020 22:30 tempo osservato: Sereno Sereno 20 68 1015 vento: Nord E 11.1
19 Ottobre 2020 22:00 tempo osservato: Sereno Sereno 21 64 1015 vento: Nord E 13
19 Ottobre 2020 21:30 tempo osservato: Sereno Sereno 21 64 1015 vento: Nord E 14.8
19 Ottobre 2020 21:00 tempo osservato: Sereno Sereno 21 64 1015 vento: Nord E/SE 14.8
19 Ottobre 2020 20:30 tempo osservato: Sereno Sereno 21 64 1015 vento: Nord E/SE 9.3
19 Ottobre 2020 20:00 tempo osservato: Sereno Sereno 22 60 1015 vento: Nord E/SE 13
19 Ottobre 2020 19:30 tempo osservato: Sereno Sereno 22 60 1015 vento: Nord E/SE 14.8
19 Ottobre 2020 19:00 tempo osservato: Sereno Sereno 22 60 1015 vento: Nord E/SE 11.1